Date String (YYYY-MM-DD hh:mm:ss) UTC,Instrument flags,Ambient pressure (hPa),Sample flow (lpm),Bypass flow (lpm),Sample temperature (°C),Ambient temperature (°C),ASC tube jacket temperature (°C),LED temperature (°C),Box temperature (°C),Sample RH (%),Span deviation,Mass concentration (μg/m³),Mass concentration (μg/m³),Mass concentration (μg/m³)
DateTimeUTC,F1_M11,P_M11,Q1_M11,Q2_M11,T1_M11,T2_M11,T3_M11,T4_M11,T5_M11,U1_M11,ZSPAN_M11,X0_M11,X2_M11,X1_M11
2022-01-24 12:00:00,,0821.2,4.99,0.00,22.5,21.8,00.0,31.5,24.2,08.4,0000.0,0000.78,0000.57,0000.50
2022-01-24 12:01:00,,0821.2,5.00,0.00,22.5,21.8,00.0,31.5,24.2,08.4,0000.0,0000.81,0000.58,0000.50
2022-01-24 12:02:00,,0821.2,5.01,0.00,22.5,21.8,00.0,31.5,24.2,08.4,0000.0,0000.81,0000.58,0000.50
2022-01-24 12:03:00,,0821.2,5.01,0.00,22.5,21.8,00.0,31.5,24.2,08.3,0000.0,0000.81,0000.58,0000.50
2022-01-24 12:04:00,,0821.2,4.99,0.00,22.4,21.7,00.0,31.5,24.2,08.4,0000.0,0000.81,0000.58,0000.50
2022-01-24 12:05:00,,0821.2,5.00,0.00,22.4,21.7,00.0,31.5,24.2,08.4,0000.0,0000.80,0000.58,0000.50
2022-01-24 12:06:00,,0821.1,5.01,0.00,22.4,21.7,00.0,31.5,24.1,08.4,0000.0,0000.78,0000.57,0000.50
2022-01-24 12:07:00,,0821.2,4.99,0.00,22.4,21.7,00.0,31.5,24.1,08.3,0000.0,0000.79,0000.57,0000.50
2022-01-24 12:08:00,,0821.2,5.00,0.00,22.4,21.7,00.0,31.5,24.1,08.3,0000.0,0000.82,0000.57,0000.50
2022-01-24 12:09:00,,0821.2,5.01,0.00,22.4,21.6,00.0,31.5,24.1,08.6,0000.0,0000.82,0000.57,0000.49
2022-01-24 12:10:00,,0821.2,5.00,0.00,22.4,21.6,00.0,31.4,24.1,08.3,0000.0,0000.79,0000.56,0000.49
2022-01-24 12:11:00,,0821.3,4.99,0.00,22.4,21.6,00.0,31.4,24.1,08.4,0000.0,0000.70,0000.55,0000.49
2022-01-24 12:12:00,,0821.3,5.00,0.00,22.4,21.8,00.0,31.4,24.1,08.3,0000.0,0000.68,0000.53,0000.48
2022-01-24 12:13:00,,0821.3,5.00,0.00,22.5,22.5,00.0,31.5,24.3,08.2,0000.0,0000.71,0000.54,0000.49
2022-01-24 12:14:00,,0821.3,5.00,0.00,22.6,23.2,00.0,31.5,24.6,08.1,0000.0,0000.72,0000.55,0000.49
2022-01-24 12:15:00,,0821.3,5.00,0.00,22.7,23.2,00.0,31.5,24.7,08.1,0000.0,0000.72,0000.55,0000.49
2022-01-24 12:16:00,,0821.4,4.99,0.00,22.7,23.0,00.0,31.6,24.7,08.1,0000.0,0000.73,0000.55,0000.49
2022-01-24 12:17:00,,0821.3,5.00,0.00,22.7,22.8,00.0,31.6,24.6,08.3,0000.0,0000.81,0000.57,0000.48
2022-01-24 12:18:00,,0821.3,5.00,0.00,22.7,22.7,00.0,31.6,24.6,08.3,0000.0,0000.82,0000.58,0000.48
2022-01-24 12:19:00,,0821.3,5.00,0.00,22.7,22.5,00.0,31.6,24.5,08.2,0000.0,0000.87,0000.58,0000.48
2022-01-24 12:20:00,,0821.3,4.99,0.00,22.7,22.4,00.0,31.6,24.5,08.2,0000.0,0000.97,0000.60,0000.49
2022-01-24 12:21:00,,0821.3,5.00,0.00,22.7,22.3,00.0,31.6,24.5,08.2,0000.0,0000.97,0000.61,0000.49
2022-01-24 12:22:00,,0821.3,5.00,0.00,22.7,22.2,00.0,31.6,24.5,08.2,0000.0,0000.98,0000.62,0000.50
2022-01-24 12:23:00,,0821.4,5.00,0.00,22.6,22.1,00.0,31.6,24.4,08.2,0000.0,0001.00,0000.64,0000.52
2022-01-24 12:24:00,,0821.4,5.00,0.00,22.6,22.1,00.0,31.6,24.4,08.3,0000.0,0001.03,0000.66,0000.54
2022-01-24 12:25:00,,0821.4,5.00,0.00,22.6,22.0,00.0,31.6,24.4,08.3,0000.0,0001.06,0000.69,0000.55
2022-01-24 12:26:00,,0821.4,5.00,0.00,22.6,22.0,00.0,31.6,24.3,08.4,0000.0,0001.53,0000.73,0000.58
2022-01-24 12:27:00,,0821.4,5.00,0.00,22.6,21.9,00.0,31.6,24.3,08.5,0000.0,0001.57,0000.76,0000.60
2022-01-24 12:28:00,,0821.4,5.00,0.00,22.6,21.9,00.0,31.6,24.3,08.5,0000.0,0001.80,0000.79,0000.63
2022-01-24 12:29:00,,0821.4,5.01,0.00,22.5,21.9,00.0,31.6,24.3,08.5,0000.0,0002.01,0000.83,0000.66
2022-01-24 12:30:00,,0821.4,5.00,0.00,22.5,21.8,00.0,31.6,24.2,08.5,0000.0,0001.95,0000.84,0000.68
2022-01-24 12:31:00,,0821.4,5.00,0.00,22.5,21.8,00.0,31.6,24.2,08.5,0000.0,0001.85,0000.83,0000.70
2022-01-24 12:32:00,,0821.4,5.00,0.00,22.5,21.7,00.0,31.6,24.2,08.6,0000.0,0002.09,0000.83,0000.71
2022-01-24 12:33:00,,0821.4,5.00,0.00,22.5,21.7,00.0,31.5,24.1,08.6,0000.0,0002.55,0000.85,0000.72
2022-01-24 12:34:00,,0821.4,4.99,0.00,22.4,21.7,00.0,31.5,24.1,08.6,0000.0,0002.55,0000.86,0000.73
2022-01-24 12:35:00,,0821.4,5.01,0.00,22.4,21.7,00.0,31.5,24.1,08.6,0000.0,0002.59,0000.88,0000.73
2022-01-24 12:36:00,,0821.5,5.02,0.00,22.4,21.7,00.0,31.5,24.1,08.6,0000.0,0002.62,0000.90,0000.74
2022-01-24 12:37:00,,0821.4,5.00,0.00,22.4,21.6,00.0,31.5,24.1,08.6,0000.0,0002.22,0000.90,0000.74
2022-01-24 12:38:00,,0821.4,5.00,0.00,22.4,21.6,00.0,31.5,24.1,08.6,0000.0,0002.27,0000.91,0000.74
2022-01-24 12:39:00,,0821.5,4.99,0.00,22.4,21.6,00.0,31.5,24.1,08.6,0000.0,0002.00,0000.89,0000.75
2022-01-24 12:40:00,,0821.5,5.00,0.00,22.4,21.6,00.0,31.5,24.1,08.6,0000.0,0002.05,0000.85,0000.74
2022-01-24 12:41:00,,0821.4,5.00,0.00,22.4,21.6,00.0,31.4,24.1,08.6,0000.0,0003.15,0000.86,0000.75
2022-01-24 12:42:00,,0821.4,5.00,0.00,22.3,21.6,00.0,31.4,24.1,08.6,0000.0,0003.18,0000.88,0000.75
2022-01-24 12:43:00,,0821.4,5.00,0.00,22.3,21.6,00.0,31.4,24.0,08.5,0000.0,0002.87,0000.87,0000.75
2022-01-24 12:44:00,,0821.5,5.00,0.00,22.3,21.6,00.0,31.4,24.0,08.5,0000.0,0002.49,0000.86,0000.75
2022-01-24 12:45:00,,0821.5,5.00,0.00,22.3,21.6,00.0,31.4,24.0,08.5,0000.0,0002.51,0000.87,0000.75
2022-01-24 12:46:00,,0821.5,4.98,0.00,22.4,22.0,00.0,31.4,24.1,08.5,0000.0,0002.48,0000.85,0000.76
2022-01-24 12:47:00,,0821.6,5.01,0.00,22.5,22.7,00.0,31.5,24.4,08.5,0000.0,0003.67,0000.87,0000.76
2022-01-24 12:48:00,,0821.6,5.00,0.00,22.6,23.2,00.0,31.5,24.6,08.4,0000.0,0003.68,0000.88,0000.76
2022-01-24 12:49:00,,0821.6,5.00,0.00,22.7,23.0,00.0,31.5,24.6,08.3,0000.0,0003.63,0000.88,0000.76
2022-01-24 12:50:00,,0821.5,5.00,0.00,22.7,22.8,00.0,31.5,24.6,08.3,0000.0,0003.64,0000.89,0000.76
2022-01-24 12:51:00,,0821.5,5.00,0.00,22.7,22.7,00.0,31.5,24.6,08.3,0000.0,0003.56,0000.92,0000.76
2022-01-24 12:52:00,,0821.6,5.01,0.00,22.7,22.6,00.0,31.5,24.6,08.3,0000.0,0002.40,0000.94,0000.77
2022-01-24 12:53:00,,0821.5,5.00,0.00,22.7,22.4,00.0,31.5,24.5,08.5,0000.0,0002.38,0000.93,0000.76
2022-01-24 12:54:00,,0821.6,5.00,0.00,22.7,22.3,00.0,31.6,24.5,08.4,0000.0,0002.40,0000.94,0000.77
2022-01-24 12:55:00,,0821.5,4.99,0.00,22.7,22.3,00.0,31.6,24.5,08.5,0000.0,0002.39,0000.94,0000.77
2022-01-24 12:56:00,,0821.6,5.01,0.00,22.7,22.2,00.0,31.6,24.5,08.6,0000.0,0002.38,0000.94,0000.78
2022-01-24 12:57:00,,0821.5,5.00,0.00,22.6,22.2,00.0,31.6,24.4,08.5,0000.0,0002.40,0000.94,0000.77
2022-01-24 12:58:00,,0821.6,5.00,0.00,22.6,22.1,00.0,31.6,24.4,08.7,0000.0,0001.26,0000.93,0000.78
2022-01-24 12:59:00,,0821.5,5.00,0.00,22.6,22.1,00.0,31.6,24.4,08.9,0000.0,0001.23,0000.95,0000.81
